Weather History for KRAL - June, 2014

Change the Weather History Date:

Friday, June 13, 2014

  Actual Average Record
Temperature  
Mean Temperature 72 °F 72 °F  
Max Temperature 86 °F 84 °F 105 °F (1917)
Min Temperature 58 °F 59 °F 44 °F (1950)
Degree Days  
Heating Degree Days 0 0  
Month to date heating degree days 0 0  
Since 1 June heating degree days 0 0  
Since 1 July heating degree days 803 1444  
Cooling Degree Days 7 7  
Month to date cooling degree days 119 74  
Year to date cooling degree days 497 251  
Since 1 June cooling degree days 119 74  
Growing Degree Days 20 (Base 50)    
Moisture  
Dew Point 54 °F    
Average Humidity 62    
Maximum Humidity 93    
Minimum Humidity 31    
Precipitation  
Precipitation 0.00 in 0.01 in T in (2002)
Month to date precipitation 0.00 0.05  
Year to date precipitation 1.72 9.14  
Since 1 July precipitation 2.87  
Snow  
Snow 0.00 in - - ()
Month to date snowfall 0.0  
Year to date snowfall 0.0  
Since 1 June snowfall  
Since 1 July snowfall 0.0  
Snow Depth 0.00 in    
Sea Level Pressure  
Sea Level Pressure 29.88 in    
Wind  
Wind Speed 5 mph (West)    
Max Wind Speed 16 mph    
Max Gust Speed 21 mph    
Visibility 8 miles    
Events      
T = Trace of Precipitation, MM = Missing Value Source: NWS Daily Summary

Daily Weather History Graph

Daily Weather History Graph

Search for Another Location

Airport or City:

Trip Planner

Search our weather history database for the weather conditions in past years. The results will help you decide how hot, cold, wet, or windy it might be!

Date:

Astronomy

Jun. 13, 2014 Rise Set
Actual Time 5:38 AM PDT 8:01 PM PDT
Civil Twilight 5:08 AM PDT 8:30 PM PDT
Nautical Twilight 4:33 AM PDT 9:06 PM PDT
Astronomical Twilight 3:53 AM PDT 9:46 PM PDT
Moon 8:40 PM PDT (6/13) 6:18 AM PDT (6/13)
Length of Visible Light 15h 21m
Length of Day
14h 23m
Waxing Gibbous, 99% of the Moon is Illuminated
Jun 13
Waxing Gibbous
Jun 19
Last Quarter
Jun 27
New
Jul 5
First Quarter
Jul 12
Full

Hourly Weather History & Observations

Time (PDT) Temp. Dew Point Humidity Pressure Visibility Wind Dir Wind Speed Gust Speed Precip Events Conditions
12:53 AM 63.0 °F 55.9 °F 78% 29.91 in 10.0 mi West 3.5 mph - N/A   Clear
1:53 AM 61.0 °F 55.0 °F 81% 29.91 in 10.0 mi West 5.8 mph - N/A   Clear
2:53 AM 60.1 °F 55.0 °F 83% 29.91 in 10.0 mi WNW 4.6 mph - N/A   Clear
3:53 AM 59.0 °F 55.0 °F 87% 29.90 in 8.0 mi West 3.5 mph - N/A   Clear
4:53 AM 57.9 °F 55.0 °F 90% 29.89 in 6.0 mi West 4.6 mph - N/A   Clear
5:33 AM 57.9 °F 55.0 °F 90% 29.93 in 5.0 mi West 3.5 mph - N/A   Mostly Cloudy
5:41 AM 57.9 °F 55.0 °F 90% 29.93 in 5.0 mi Calm Calm - N/A   Mostly Cloudy
5:53 AM 59.0 °F 55.9 °F 90% 29.90 in 4.0 mi West 3.5 mph - N/A   Overcast
6:53 AM 60.1 °F 55.9 °F 86% 29.91 in 5.0 mi Calm Calm - N/A   Overcast
8:53 AM 63.0 °F 55.9 °F 78% 29.91 in 5.0 mi SW 4.6 mph - N/A   Haze
10:53 AM 73.0 °F 55.9 °F 55% 29.90 in 7.0 mi Variable 3.5 mph - N/A   Clear
11:53 AM 77.0 °F 52.0 °F 42% 29.89 in 9.0 mi West 5.8 mph - N/A   Clear
12:53 PM 81.0 °F 48.9 °F 33% 29.87 in 10.0 mi Variable 4.6 mph - N/A   Clear
4:53 PM 82.9 °F 51.1 °F 33% 29.81 in 10.0 mi West 11.5 mph 19.6 mph N/A   Clear
5:53 PM 80.1 °F 51.1 °F 36% 29.80 in 10.0 mi WNW 9.2 mph - N/A   Clear
6:53 PM 75.9 °F 51.1 °F 42% 29.82 in 10.0 mi West 11.5 mph 20.7 mph N/A   Clear
7:53 PM 71.1 °F 53.1 °F 53% 29.83 in 10.0 mi West 10.4 mph - N/A   Clear
8:53 PM 68.0 °F 54.0 °F 61% 29.85 in 10.0 mi West 5.8 mph - N/A   Clear
9:53 PM 66.0 °F 54.0 °F 65% 29.87 in 10.0 mi West 6.9 mph - N/A   Clear
10:53 PM 64.0 °F 54.0 °F 70% 29.88 in 10.0 mi West 5.8 mph - N/A   Clear
11:53 PM 63.0 °F 55.0 °F 75% 29.86 in 10.0 mi WNW 4.6 mph - N/A   Clear